TimeCDT,TemperatureF,Dew PointF,Humidity,Sea Level PressureIn,VisibilityMPH,Wind Direction,Wind SpeedMPH,Gust SpeedMPH,PrecipitationIn,Events,Conditions,WindDirDegrees,DateUTC
12:52 AM,46.0,37.0,71,29.86,10.0,Calm,Calm,-,N/A,,Clear,0,2013-05-15 05:52:00
1:52 AM,46.9,37.9,71,29.85,10.0,Calm,Calm,-,N/A,,Partly Cloudy,0,2013-05-15 06:52:00
2:52 AM,48.9,39.9,71,29.84,10.0,Calm,Calm,-,N/A,,Scattered Clouds,0,2013-05-15 07:52:00
3:52 AM,51.1,42.1,71,29.90,10.0,ESE,6.9,-,N/A,,Overcast,110,2013-05-15 08:52:00
4:52 AM,55.9,42.1,60,29.85,10.0,ESE,8.1,-,N/A,,Mostly Cloudy,120,2013-05-15 09:52:00
5:52 AM,51.1,42.1,71,29.88,10.0,South,4.6,-,N/A,,Scattered Clouds,170,2013-05-15 10:52:00
6:52 AM,53.1,45.0,74,29.88,10.0,ESE,3.5,-,N/A,,Partly Cloudy,120,2013-05-15 11:52:00
7:52 AM,55.0,46.9,74,29.91,10.0,Calm,Calm,-,N/A,,Mostly Cloudy,0,2013-05-15 12:52:00
8:52 AM,59.0,48.0,67,29.91,10.0,SW,4.6,-,N/A,,Mostly Cloudy,220,2013-05-15 13:52:00
9:52 AM,61.0,48.9,64,29.92,10.0,SSW,5.8,-,0.00,Rain,Light Rain,210,2013-05-15 14:52:00
10:52 AM,69.1,46.9,45,29.92,10.0,SW,5.8,-,0.00,,Scattered Clouds,230,2013-05-15 15:52:00
11:52 AM,72.0,45.0,38,29.92,10.0,NW,5.8,-,N/A,,Clear,320,2013-05-15 16:52:00
12:52 PM,75.9,43.0,31,29.91,10.0,NNW,10.4,16.1,N/A,,Clear,340,2013-05-15 17:52:00
1:52 PM,75.9,35.1,23,29.89,10.0,NNW,4.6,-,N/A,,Mostly Cloudy,340,2013-05-15 18:52:00
2:52 PM,78.1,37.0,23,29.87,10.0,NW,9.2,-,N/A,,Scattered Clouds,320,2013-05-15 19:52:00
3:52 PM,79.0,39.0,24,29.86,10.0,North,6.9,-,N/A,,Clear,350,2013-05-15 20:52:00
4:52 PM,81.0,37.9,21,29.83,10.0,NNE,9.2,-,N/A,,Mostly Cloudy,20,2013-05-15 21:52:00
5:52 PM,78.1,35.1,21,29.83,10.0,Calm,Calm,-,N/A,,Scattered Clouds,0,2013-05-15 22:52:00
6:52 PM,78.1,35.1,21,29.82,10.0,Calm,Calm,-,N/A,,Overcast,0,2013-05-15 23:52:00
7:52 PM,73.0,39.9,30,29.82,10.0,ENE,4.6,-,N/A,,Scattered Clouds,60,2013-05-16 00:52:00
8:52 PM,72.0,35.1,26,29.83,10.0,ENE,5.8,-,N/A,,Overcast,70,2013-05-16 01:52:00
9:52 PM,63.0,34.0,34,29.85,10.0,SE,5.8,-,N/A,,Mostly Cloudy,130,2013-05-16 02:52:00
10:52 PM,62.1,37.0,39,29.84,10.0,Calm,Calm,-,N/A,,Partly Cloudy,0,2013-05-16 03:52:00
11:52 PM,66.0,34.0,30,29.83,10.0,ENE,12.7,-,N/A,,Scattered Clouds,70,2013-05-16 04:52:00